This demonstration page uses our WeatherBlox Daily Observations layout. Learn more.

Left ArrowRight Arrow

Hourly Observations for September 16, 2017

Temp ( °F °C ) Dew Point ( °F °C ) Humidity (%) Winds ( mph kmh ) Pressure ( in mb ) Visibility ( mi km ) Precip ( " mm )
12:10 am 00:10 Clear 64 18 59 15 83 83 SE 5 7 30.12 1020 10 16.0934 N/A
12:31 am 00:31 Clear 63 17 59 15 88 88 SE 3 6 30.12 1020 10 16.0934 N/A
12:50 am 00:50 Clear 63 17 59 15 88 88 SSE 3 6 30.12 1020 10 16.0934 N/A
1:10 am 01:10 Clear 63 17 59 15 88 88 SSE 3 6 30.12 1020 10 16.0934 N/A
1:30 am 01:30 Clear 63 17 59 15 88 88 Calm 30.12 1020 10 16.0934 N/A
1:50 am 01:50 Clear 63 17 59 15 88 88 SSE 3 6 30.12 1020 10 16.0934 N/A
2:10 am 02:10 Clear 63 17 59 15 88 88 SE 3 6 30.12 1020 10 16.0934 N/A
2:30 am 02:30 Clear 63 17 59 15 88 88 SSE 3 6 30.12 1020 10 16.0934 N/A
2:50 am 02:50 Clear 63 17 59 15 88 88 SE 3 6 30.12 1020 10 16.0934 N/A
3:10 am 03:10 Mostly Cloudy 63 17 59 15 88 88 SE 3 6 30.12 1020 10 16.0934 N/A
3:30 am 03:30 Cloudy 63 17 59 15 88 88 SSE 5 7 30.12 1020 10 16.0934 N/A
3:50 am 03:50 Mostly Cloudy 63 17 61 16 94 94 SE 3 6 30.12 1020 10 16.0934 N/A
4:10 am 04:10 Partly Cloudy 63 17 59 15 88 88 SE 5 7 30.12 1020 10 16.0934 N/A
4:30 am 04:30 Clear 63 17 59 15 88 88 SSE 5 7 30.12 1020 10 16.0934 N/A
4:50 am 04:50 Clear 61 16 59 15 94 94 SE 3 6 30.12 1020 10 16.0934 N/A
5:10 am 05:10 Clear 61 16 59 15 94 94 SE 5 7 30.12 1020 10 16.0934 N/A
5:30 am 05:30 Clear 61 16 59 15 94 94 SE 5 7 30.12 1020 10 16.0934 N/A
5:50 am 05:50 Partly Cloudy 61 16 59 15 94 94 SSE 5 7 30.12 1020 10 16.0934 N/A
6:10 am 06:10 Mostly Cloudy 61 16 59 15 94 94 SSE 5 7 30.12 1020 10 16.0934 N/A
6:30 am 06:30 Partly Cloudy 63 17 61 16 94 94 SSE 3 6 30.12 1020 10 16.0934 N/A
6:50 am 06:50 Partly Cloudy 61 16 61 16 100 100 SE 5 7 30.12 1020 10 16.0934 N/A
7:10 am 07:10 Partly Cloudy 63 17 61 16 94 94 SE 5 7 30.12 1020 10 16.0934 N/A
7:30 am 07:30 Mostly Cloudy 61 16 59 15 94 94 SE 3 6 30.15 1021 10 16.0934 N/A
7:51 am 07:51 Mostly Cloudy 61 16 59 15 94 94 SE 3 6 30.15 1021 10 16.0934 N/A
8:10 am 08:10 Cloudy 63 17 61 16 94 94 SE 5 7 30.15 1021 10 16.0934 N/A
8:31 am 08:31 Cloudy 63 17 61 16 94 94 SE 3 6 30.15 1021 10 16.0934 N/A
8:50 am 08:50 Mostly Cloudy 64 18 63 17 94 94 SE 6 9 30.15 1021 10 16.0934 N/A
9:10 am 09:10 Mostly Cloudy 64 18 63 17 94 94 SE 6 9 30.15 1021 10 16.0934 N/A
9:31 am 09:31 Mostly Cloudy 66 19 63 17 88 88 SE 7 11 30.15 1021 10 16.0934 N/A
9:50 am 09:50 Mostly Cloudy 68 20 63 17 83 83 SSE 5 7 30.15 1021 10 16.0934 N/A
10:10 am 10:10 Mostly Cloudy 68 20 63 17 83 83 SSE 3 6 30.18 1022 10 16.0934 N/A
10:31 am 10:31 Mostly Cloudy 68 20 63 17 83 83 S 3 6 30.18 1022 10 16.0934 N/A
10:50 am 10:50 Mostly Cloudy 70 21 63 17 78 78 Calm 30.18 1022 10 16.0934 N/A
11:10 am 11:10 Partly Cloudy 72 22 64 18 78 78 S 3 6 30.18 1022 10 16.0934 N/A
11:31 am 11:31 Sunny 72 22 64 18 78 78 S 3 6 30.18 1022 10 16.0934 N/A
11:50 am 11:50 Partly Cloudy 75 24 66 19 74 74 Calm 30.15 1021 10 16.0934 N/A
12:10 pm 12:10 Cloudy 73 23 64 18 74 74 S 3 6 30.15 1021 10 16.0934 N/A
12:31 pm 12:31 Mostly Cloudy 77 25 66 19 69 69 Calm 30.15 1021 10 16.0934 N/A
12:50 pm 12:50 Cloudy 77 25 64 18 65 65 Calm 30.15 1021 10 16.0934 N/A
1:10 pm 13:10 Partly Cloudy 79 26 64 18 61 61 Calm 30.15 1021 10 16.0934 N/A
1:30 pm 13:30 Mostly Cloudy 81 27 66 19 62 62 SW 5 7 30.15 1021 10 16.0934 N/A
1:50 pm 13:50 Partly Cloudy 82 28 64 18 55 55 W 6 9 30.12 1020 10 16.0934 N/A
2:10 pm 14:10 Sunny 81 27 64 18 58 58 S 5 7 30.12 1020 10 16.0934 N/A
2:30 pm 14:30 Partly Cloudy 82 28 64 18 55 55 S 5 7 30.12 1020 10 16.0934 N/A
2:50 pm 14:50 Partly Cloudy 81 27 63 17 54 54 SSE 5 7 30.12 1020 10 16.0934 N/A
3:10 pm 15:10 Partly Cloudy 84 29 63 17 48 48 S 3 6 30.09 1019 10 16.0934 N/A
3:30 pm 15:30 Sunny 82 28 63 17 51 51 WSW 3 6 30.09 1019 10 16.0934 N/A
3:50 pm 15:50 Sunny 82 28 61 16 48 48 Calm 30.09 1019 10 16.0934 N/A
4:10 pm 16:10 Partly Cloudy 82 28 64 18 55 55 E 8 13 30.09 1019 10 16.0934 N/A
4:30 pm 16:30 Partly Cloudy 84 29 63 17 48 48 Calm 30.09 1019 10 16.0934 N/A
4:50 pm 16:50 Sunny 82 28 64 18 55 55 SE 6 9 30.09 1019 10 16.0934 N/A
5:10 pm 17:10 Sunny 82 28 63 17 51 51 ESE 3 6 30.06 1018 10 16.0934 N/A
5:30 pm 17:30 Partly Cloudy 81 27 64 18 58 58 E 6 9 30.06 1018 10 16.0934 N/A
5:50 pm 17:50 Partly Cloudy 82 28 64 18 55 55 SSE 6 9 30.06 1018 10 16.0934 N/A
6:10 pm 18:10 Partly Cloudy 82 28 64 18 55 55 ESE 8 13 30.06 1018 10 16.0934 N/A
6:30 pm 18:30 Partly Cloudy 81 27 64 18 58 58 ESE 8 13 30.06 1018 10 16.0934 N/A
6:50 pm 18:50 Partly Cloudy 81 27 64 18 58 58 ESE 8 13 30.06 1018 10 16.0934 N/A
7:10 pm 19:10 Sunny 79 26 64 18 61 61 SE 5 7 30.06 1018 10 16.0934 N/A
7:30 pm 19:30 Sunny 77 25 64 18 65 65 SE 5 7 30.06 1018 10 16.0934 N/A
7:50 pm 19:50 Sunny 75 24 64 18 69 69 SE 5 7 30.06 1018 10 16.0934 N/A
8:10 pm 20:10 Clear 73 23 64 18 74 74 SE 5 7 30.06 1018 10 16.0934 N/A
8:30 pm 20:30 Clear 72 22 64 18 78 78 SE 5 7 30.06 1018 10 16.0934 N/A
8:50 pm 20:50 Clear 72 22 64 18 78 78 SE 5 7 30.06 1018 10 16.0934 N/A
9:10 pm 21:10 Clear 70 21 64 18 83 83 SE 5 7 30.09 1019 10 16.0934 N/A
9:30 pm 21:30 Clear 70 21 64 18 83 83 SE 5 7 30.09 1019 10 16.0934 N/A
9:50 pm 21:50 Clear 70 21 64 18 83 83 SE 6 9 30.12 1020 10 16.0934 N/A
10:10 pm 22:10 Clear 68 20 64 18 88 88 SE 3 6 30.12 1020 10 16.0934 N/A
10:30 pm 22:30 Clear 68 20 64 18 88 88 SE 6 9 30.12 1020 10 16.0934 N/A
10:50 pm 22:50 Clear 68 20 64 18 88 88 SSE 5 7 30.12 1020 10 16.0934 N/A
11:10 pm 23:10 Clear 68 20 64 18 88 88 SE 5 7 30.12 1020 10 16.0934 N/A
11:30 pm 23:30 Clear 68 20 64 18 88 88 SE 3 6 30.12 1020 10 16.0934 N/A
11:50 pm 23:50 Clear 66 19 63 17 88 88 SSE 3 6 30.12 1020 10 16.0934 N/A

Powered by AerisWeather